Time,TemperatureF,DewpointF,PressureIn,WindDirection,WindDirectionDegrees,WindSpeedMPH,WindSpeedGustMPH,Humidity,HourlyPrecipIn,Conditions,Clouds,dailyrainin,SolarRadiationWatts/m^2,SoftwareType,DateUTC
2013-07-12 00:00:00,54.9,46.7,30.09,West,271,0.0,0.0,74,0.00,CLR,OVC,0.00,0.0,WeatherDisplay:10.37,2013-07-11 22:00:00,
2013-07-12 00:10:00,54.9,46.7,30.09,NE,35,0.0,0.0,74,0.00,CLR,OVC,0.00,0.0,WeatherDisplay:10.37,2013-07-11 22:10:00,
2013-07-12 00:20:00,54.7,46.9,30.09,West,265,0.0,0.0,75,0.00,CLR,OVC,0.00,0.0,WeatherDisplay:10.37,2013-07-11 22:20:00,
2013-07-12 00:30:00,54.5,46.7,30.09,West,266,0.0,0.0,75,0.00,CLR,OVC,0.00,0.0,WeatherDisplay:10.37,2013-07-11 22:30:00,
2013-07-12 00:40:00,54.3,46.6,30.09,West,280,0.0,0.0,75,0.00,CLR,OVC,0.00,0.0,WeatherDisplay:10.37,2013-07-11 22:40:00,
2013-07-12 00:50:00,54.0,46.2,30.09,SW,232,0.0,0.0,75,0.00,CLR,OVC,0.00,0.0,WeatherDisplay:10.37,2013-07-11 22:50:00,
2013-07-12 01:20:00,54.3,46.6,30.09,WSW,253,0.0,0.0,75,0.00,CLR,OVC,0.00,0.0,WeatherDisplay:10.37,2013-07-11 23:20:00,
2013-07-12 01:30:00,54.3,46.6,30.09,West,274,0.0,0.0,75,0.00,CLR,OVC,0.00,0.0,WeatherDisplay:10.37,2013-07-11 23:30:00,
2013-07-12 01:40:00,54.5,46.7,30.09,West,272,0.0,0.0,75,0.00,CLR,OVC,0.00,0.0,WeatherDisplay:10.37,2013-07-11 23:40:00,
2013-07-12 01:50:00,54.7,46.9,30.09,West,271,0.0,0.0,75,0.00,CLR,OVC,0.00,0.0,WeatherDisplay:10.37,2013-07-11 23:50:00,
2013-07-12 02:00:00,54.7,46.9,30.09,WNW,302,0.0,0.0,75,0.00,CLR,OVC,0.00,0.0,WeatherDisplay:10.37,2013-07-12 00:00:00,
2013-07-12 02:10:00,54.7,46.9,30.09,WSW,258,0.0,0.0,75,0.00,CLR,OVC,0.00,0.0,WeatherDisplay:10.37,2013-07-12 00:10:00,
2013-07-12 02:20:00,54.7,46.9,30.09,West,271,0.0,0.0,75,0.00,CLR,OVC,0.00,0.0,WeatherDisplay:10.37,2013-07-12 00:20:00,
2013-07-12 02:30:00,54.7,46.9,30.09,West,259,2.0,2.0,75,0.00,CLR,OVC,0.00,0.0,WeatherDisplay:10.37,2013-07-12 00:30:00,
2013-07-12 02:40:00,54.7,46.9,30.09,WSW,247,0.0,2.0,75,0.00,CLR,OVC,0.00,0.0,WeatherDisplay:10.37,2013-07-12 00:40:00,
2013-07-12 02:50:00,54.5,46.7,30.09,WSW,255,0.0,0.0,75,0.00,CLR,OVC,0.00,0.0,WeatherDisplay:10.37,2013-07-12 00:50:00,
2013-07-12 03:00:00,54.5,46.7,30.09,WNW,287,0.0,0.0,75,0.00,CLR,OVC,0.00,0.0,WeatherDisplay:10.37,2013-07-12 01:00:00,
2013-07-12 03:10:00,54.3,46.6,30.09,WNW,282,0.0,0.0,75,0.00,CLR,OVC,0.00,0.0,WeatherDisplay:10.37,2013-07-12 01:10:00,
2013-07-12 03:20:00,54.3,46.6,30.09,WNW,286,0.0,0.0,75,0.00,CLR,OVC,0.00,0.0,WeatherDisplay:10.37,2013-07-12 01:20:00,
2013-07-12 03:30:00,54.3,46.6,30.09,West,278,1.0,1.0,75,0.00,CLR,OVC,0.00,0.0,WeatherDisplay:10.37,2013-07-12 01:30:00,
2013-07-12 03:40:00,54.0,46.2,30.09,WSW,240,0.0,1.0,75,0.00,CLR,OVC,0.00,0.0,WeatherDisplay:10.37,2013-07-12 01:40:00,
2013-07-12 03:50:00,53.8,46.0,30.09,SW,221,1.0,1.0,75,0.00,CLR,OVC,0.00,0.0,WeatherDisplay:10.37,2013-07-12 01:50:00,
2013-07-12 04:00:00,53.8,46.4,30.09,SW,222,1.0,1.0,76,0.00,CLR,OVC,0.00,0.0,WeatherDisplay:10.37,2013-07-12 02:00:00,
2013-07-12 04:10:00,53.8,46.4,30.09,SW,235,0.0,0.0,76,0.00,CLR,OVC,0.00,0.0,WeatherDisplay:10.37,2013-07-12 02:10:00,
2013-07-12 04:20:00,53.4,46.0,30.09,WNW,291,0.0,0.0,76,0.00,CLR,OVC,0.00,0.0,WeatherDisplay:10.37,2013-07-12 02:20:00,
2013-07-12 04:30:00,53.2,45.9,30.09,WSW,243,0.0,0.0,76,0.00,CLR,OVC,0.00,0.0,WeatherDisplay:10.37,2013-07-12 02:30:00,
2013-07-12 04:40:00,53.4,46.0,30.09,WSW,255,0.0,0.0,76,0.00,CLR,OVC,0.00,0.0,WeatherDisplay:10.37,2013-07-12 02:40:00,
2013-07-12 04:50:00,53.4,46.0,30.09,West,281,0.0,0.0,76,0.00,CLR,OVC,0.00,0.0,WeatherDisplay:10.37,2013-07-12 02:50:00,
2013-07-12 05:00:00,53.6,46.2,30.09,NW,309,1.0,1.0,76,0.00,OVC,OVC,0.00,0.0,WeatherDisplay:10.37,2013-07-12 03:00:00,
2013-07-12 05:10:00,53.6,46.2,30.09,NNW,329,0.0,0.0,76,0.00,OVC,OVC,0.00,0.0,WeatherDisplay:10.37,2013-07-12 03:10:00,
2013-07-12 05:20:00,53.6,46.2,30.09,NW,310,2.0,2.0,76,0.00,OVC,OVC,0.00,0.0,WeatherDisplay:10.37,2013-07-12 03:20:00,
2013-07-12 05:30:00,53.4,46.0,30.09,WNW,294,0.0,2.0,76,0.00,OVC,OVC,0.00,0.0,WeatherDisplay:10.37,2013-07-12 03:30:00,
2013-07-12 05:40:00,53.6,46.2,30.09,WNW,283,0.0,3.0,76,0.00,OVC,OVC,0.00,0.0,WeatherDisplay:10.37,2013-07-12 03:40:00,
2013-07-12 05:50:00,53.8,46.4,30.09,West,265,2.0,3.0,76,0.00,OVC,OVC,0.00,0.0,WeatherDisplay:10.37,2013-07-12 03:50:00,
2013-07-12 06:00:00,54.0,46.2,30.09,West,259,0.0,2.0,75,0.00,OVC,OVC,0.00,0.0,WeatherDisplay:10.37,2013-07-12 04:00:00,
2013-07-12 06:10:00,54.0,46.2,30.09,West,264,0.0,3.0,75,0.00,OVC,OVC,0.00,0.0,WeatherDisplay:10.37,2013-07-12 04:10:00,
2013-07-12 06:20:00,53.8,46.0,30.09,WSW,241,0.0,3.0,75,0.00,OVC,OVC,0.00,0.0,WeatherDisplay:10.37,2013-07-12 04:20:00,
2013-07-12 06:30:00,53.6,45.9,30.09,West,279,0.0,0.0,75,0.00,OVC,OVC,0.00,0.0,WeatherDisplay:10.37,2013-07-12 04:30:00,
2013-07-12 06:40:00,54.9,47.1,30.12,NNW,339,6.0,6.0,75,0.00,OVC,OVC,0.00,0.0,WeatherDisplay:10.37,2013-07-12 04:40:00,
2013-07-12 06:50:00,56.5,47.9,30.09,NW,314,0.0,6.0,73,0.00,OVC,OVC,0.00,0.0,WeatherDisplay:10.37,2013-07-12 04:50:00,
2013-07-12 07:00:00,56.5,47.6,30.09,NW,310,5.0,5.0,72,0.00,OVC,OVC,0.00,0.0,WeatherDisplay:10.37,2013-07-12 05:00:00,
2013-07-12 07:10:00,56.5,47.6,30.09,WSW,242,5.0,5.0,72,0.00,OVC,OVC,0.00,0.0,WeatherDisplay:10.37,2013-07-12 05:10:00,
2013-07-12 07:20:00,55.2,46.3,30.09,WSW,254,3.0,5.0,72,0.00,OVC,OVC,0.00,0.0,WeatherDisplay:10.37,2013-07-12 05:20:00,
2013-07-12 07:30:00,55.0,46.5,30.09,WSW,245,2.0,3.0,73,0.00,OVC,OVC,0.00,0.0,WeatherDisplay:10.37,2013-07-12 05:30:00,
2013-07-12 07:40:00,55.4,46.9,30.12,WNW,290,5.0,5.0,73,0.00,OVC,OVC,0.00,0.0,WeatherDisplay:10.37,2013-07-12 05:40:00,
2013-07-12 07:50:00,55.9,47.4,30.09,WNW,297,3.0,5.0,73,0.00,OVC,OVC,0.00,0.0,WeatherDisplay:10.37,2013-07-12 05:50:00,
2013-07-12 08:00:00,56.3,47.8,30.09,NW,304,3.0,3.0,73,0.00,OVC,OVC,0.00,0.0,WeatherDisplay:10.37,2013-07-12 06:00:00,
2013-07-12 08:10:00,55.9,47.8,30.12,NW,306,0.0,0.0,74,0.00,OVC,OVC,0.00,0.0,WeatherDisplay:10.37,2013-07-12 06:10:00,
2013-07-12 08:20:00,55.6,47.8,30.12,WNW,284,3.0,3.0,75,0.00,OVC,OVC,0.00,0.0,WeatherDisplay:10.37,2013-07-12 06:20:00,
2013-07-12 08:30:00,55.8,48.0,30.12,WNW,286,3.0,4.0,75,0.00,OVC,OVC,0.00,0.0,WeatherDisplay:10.37,2013-07-12 06:30:00,
2013-07-12 08:40:00,55.4,47.6,30.12,NNW,341,0.0,5.0,75,0.00,OVC,OVC,0.00,0.0,WeatherDisplay:10.37,2013-07-12 06:40:00,
2013-07-12 08:50:00,55.4,47.6,30.12,North,8,2.0,3.0,75,0.00,OVC,OVC,0.00,0.0,WeatherDisplay:10.37,2013-07-12 06:50:00,
2013-07-12 09:00:00,55.4,47.6,30.12,North,356,2.0,2.0,75,0.00,OVC,OVC,0.00,0.0,WeatherDisplay:10.37,2013-07-12 07:00:00,
2013-07-12 09:10:00,55.4,47.6,30.12,NW,314,3.0,3.0,75,0.00,OVC,OVC,0.00,0.0,WeatherDisplay:10.37,2013-07-12 07:10:00,
2013-07-12 09:20:00,55.6,47.8,30.12,WSW,257,3.0,3.0,75,0.00,OVC,OVC,0.00,0.0,WeatherDisplay:10.37,2013-07-12 07:20:00,
2013-07-12 09:30:00,56.8,49.4,30.12,WNW,282,2.0,3.0,76,0.00,OVC,OVC,0.00,0.0,WeatherDisplay:10.37,2013-07-12 07:30:00,
2013-07-12 09:40:00,58.1,49.5,30.12,North,357,5.0,5.0,73,0.00,OVC,OVC,0.00,0.0,WeatherDisplay:10.37,2013-07-12 07:40:00,
2013-07-12 09:50:00,59.0,49.2,30.12,WNW,282,6.0,6.0,70,0.00,OVC,OVC,0.00,0.0,WeatherDisplay:10.37,2013-07-12 07:50:00,
2013-07-12 10:00:00,59.0,48.4,30.12,WSW,256,8.0,8.0,68,0.00,OVC,OVC,0.00,0.0,WeatherDisplay:10.37,2013-07-12 08:00:00,
2013-07-12 10:10:00,59.4,48.0,30.12,West,259,7.0,7.0,66,0.00,FEW,OVC,0.00,0.0,WeatherDisplay:10.37,2013-07-12 08:10:00,
2013-07-12 10:20:00,59.0,47.2,30.12,WNW,287,6.0,7.0,65,0.00,FEW,OVC,0.00,0.0,WeatherDisplay:10.37,2013-07-12 08:20:00,
2013-07-12 10:30:00,59.7,47.9,30.12,WNW,287,7.0,7.0,65,0.00,FEW,OVC,0.00,0.0,WeatherDisplay:10.37,2013-07-12 08:30:00,
2013-07-12 10:40:00,60.6,48.4,30.12,WSW,250,5.0,7.0,64,0.00,FEW,OVC,0.00,0.0,WeatherDisplay:10.37,2013-07-12 08:40:00,
2013-07-12 10:50:00,60.6,48.8,30.12,West,279,9.0,9.0,65,0.00,FEW,OVC,0.00,0.0,WeatherDisplay:10.37,2013-07-12 08:50:00,
2013-07-12 11:00:00,60.6,48.4,30.12,WNW,290,5.0,9.0,64,0.00,FEW,OVC,0.00,0.0,WeatherDisplay:10.37,2013-07-12 09:00:00,
2013-07-12 11:10:00,61.3,49.1,30.12,NNW,336,7.0,7.0,64,0.00,SCT,OVC,0.00,0.0,WeatherDisplay:10.37,2013-07-12 09:10:00,
2013-07-12 11:20:00,62.4,49.7,30.12,North,7,3.0,7.0,63,0.00,SCT,OVC,0.00,0.0,WeatherDisplay:10.37,2013-07-12 09:20:00,
2013-07-12 11:30:00,63.9,50.6,30.12,NNE,27,8.0,8.0,62,0.00,SCT,OVC,0.00,0.0,WeatherDisplay:10.37,2013-07-12 09:30:00,
2013-07-12 11:40:00,63.7,49.5,30.15,North,8,8.0,8.0,60,0.00,SCT,OVC,0.00,0.0,WeatherDisplay:10.37,2013-07-12 09:40:00,
2013-07-12 11:50:00,64.8,50.5,30.12,NNW,347,6.0,10.0,60,0.00,SCT,OVC,0.00,0.0,WeatherDisplay:10.37,2013-07-12 09:50:00,
2013-07-12 12:00:00,64.2,50.0,30.12,NNW,334,5.0,6.0,60,0.00,SCT,OVC,0.00,0.0,WeatherDisplay:10.37,2013-07-12 10:00:00,
2013-07-12 12:10:00,64.4,50.2,30.15,NW,320,7.0,7.0,60,0.00,BKN,OVC,0.00,0.0,WeatherDisplay:10.37,2013-07-12 10:10:00,
2013-07-12 12:20:00,66.4,51.2,30.12,NNW,336,7.0,7.0,58,0.00,BKN,OVC,0.00,0.0,WeatherDisplay:10.37,2013-07-12 10:20:00,
2013-07-12 12:30:00,66.4,51.2,30.12,NNW,335,7.0,7.0,58,0.00,BKN,OVC,0.00,0.0,WeatherDisplay:10.37,2013-07-12 10:30:00,
2013-07-12 12:40:00,65.3,50.1,30.12,NW,322,6.0,9.0,58,0.00,BKN,OVC,0.00,0.0,WeatherDisplay:10.37,2013-07-12 10:40:00,
2013-07-12 12:50:00,66.6,50.8,30.12,North,352,9.0,9.0,57,0.00,BKN,OVC,0.00,0.0,WeatherDisplay:10.37,2013-07-12 10:50:00,
2013-07-12 13:00:00,65.1,50.0,30.12,North,3,7.0,9.0,58,0.00,BKN,OVC,0.00,0.0,WeatherDisplay:10.37,2013-07-12 11:00:00,
2013-07-12 13:10:00,65.7,50.5,30.12,North,10,8.0,8.0,58,0.00,SCT,OVC,0.00,0.0,WeatherDisplay:10.37,2013-07-12 11:10:00,
2013-07-12 13:20:00,68.5,51.2,30.12,NNE,26,7.0,8.0,54,0.00,SCT,OVC,0.00,0.0,WeatherDisplay:10.37,2013-07-12 11:20:00,
2013-07-12 13:30:00,66.9,50.7,30.12,North,10,6.0,7.0,56,0.00,SCT,OVC,0.00,0.0,WeatherDisplay:10.37,2013-07-12 11:30:00,
2013-07-12 13:40:00,66.6,50.8,30.12,NNW,334,3.0,6.0,57,0.00,SCT,OVC,0.00,0.0,WeatherDisplay:10.37,2013-07-12 11:40:00,
2013-07-12 13:50:00,65.8,50.2,30.12,NNE,27,5.0,6.0,57,0.00,SCT,OVC,0.00,0.0,WeatherDisplay:10.37,2013-07-12 11:50:00,
2013-07-12 14:00:00,65.5,49.4,30.12,NNE,24,1.0,5.0,56,0.00,SCT,OVC,0.00,0.0,WeatherDisplay:10.37,2013-07-12 12:00:00,
2013-07-12 14:10:00,65.3,49.7,30.12,North,10,5.0,7.0,57,0.00,SCT,OVC,0.00,0.0,WeatherDisplay:10.37,2013-07-12 12:10:00,
2013-07-12 14:20:00,65.7,49.5,30.12,NNE,16,7.0,7.0,56,0.00,SCT,OVC,0.00,0.0,WeatherDisplay:10.37,2013-07-12 12:20:00,
2013-07-12 14:30:00,65.8,50.2,30.12,NNE,20,3.0,7.0,57,0.00,SCT,OVC,0.00,0.0,WeatherDisplay:10.37,2013-07-12 12:30:00,
2013-07-12 14:40:00,66.2,50.0,30.12,North,10,6.0,6.0,56,0.00,SCT,OVC,0.00,0.0,WeatherDisplay:10.37,2013-07-12 12:40:00,
2013-07-12 14:50:00,66.4,49.7,30.12,NNW,340,5.0,7.0,55,0.00,SCT,OVC,0.00,0.0,WeatherDisplay:10.37,2013-07-12 12:50:00,
2013-07-12 15:00:00,66.2,49.6,30.12,NNW,335,6.0,6.0,55,0.00,SCT,OVC,0.00,0.0,WeatherDisplay:10.37,2013-07-12 13:00:00,
2013-07-12 15:10:00,67.3,50.1,30.12,North,350,7.0,9.0,54,0.00,BKN,OVC,0.00,0.0,WeatherDisplay:10.37,2013-07-12 13:10:00,
2013-07-12 15:20:00,68.5,51.7,30.12,NNE,16,6.0,8.0,55,0.00,BKN,OVC,0.00,0.0,WeatherDisplay:10.37,2013-07-12 13:20:00,
2013-07-12 15:30:00,67.6,50.4,30.12,NNE,18,5.0,6.0,54,0.00,BKN,OVC,0.00,0.0,WeatherDisplay:10.37,2013-07-12 13:30:00,
2013-07-12 15:40:00,72.0,52.3,30.12,ENE,58,7.0,7.0,50,0.00,BKN,OVC,0.00,0.0,WeatherDisplay:10.37,2013-07-12 13:40:00,
2013-07-12 15:50:00,67.6,49.9,30.12,ENE,57,7.0,9.0,53,0.00,BKN,OVC,0.00,0.0,WeatherDisplay:10.37,2013-07-12 13:50:00,
2013-07-12 16:00:00,67.6,49.9,30.12,NE,55,7.0,7.0,53,0.00,BKN,OVC,0.00,0.0,WeatherDisplay:10.37,2013-07-12 14:00:00,
2013-07-12 16:10:00,68.2,50.4,30.12,NE,40,5.0,8.0,53,0.00,OVC,OVC,0.00,0.0,WeatherDisplay:10.37,2013-07-12 14:10:00,
2013-07-12 16:20:00,70.2,52.2,30.12,NNE,17,3.0,6.0,53,0.00,OVC,OVC,0.00,0.0,WeatherDisplay:10.37,2013-07-12 14:20:00,
2013-07-12 16:30:00,71.6,51.4,30.12,NNE,33,6.0,6.0,49,0.00,OVC,OVC,0.00,0.0,WeatherDisplay:10.37,2013-07-12 14:30:00,
2013-07-12 16:40:00,70.5,51.0,30.12,North,360,5.0,7.0,50,0.00,OVC,OVC,0.00,0.0,WeatherDisplay:10.37,2013-07-12 14:40:00,
2013-07-12 16:50:00,70.3,50.8,30.12,North,355,7.0,7.0,50,0.00,OVC,OVC,0.00,0.0,WeatherDisplay:10.37,2013-07-12 14:50:00,
2013-07-12 17:00:00,68.2,49.9,30.12,North,355,5.0,7.0,52,0.00,OVC,OVC,0.00,0.0,WeatherDisplay:10.37,2013-07-12 15:00:00,
2013-07-12 17:10:00,70.9,51.3,30.12,NNE,21,8.0,8.0,50,0.00,FEW,OVC,0.00,0.0,WeatherDisplay:10.37,2013-07-12 15:10:00,
2013-07-12 17:20:00,70.5,51.0,30.12,NE,55,7.0,8.0,50,0.00,FEW,OVC,0.00,0.0,WeatherDisplay:10.37,2013-07-12 15:20:00,
2013-07-12 17:30:00,71.2,51.6,30.12,NE,55,5.0,7.0,50,0.00,FEW,OVC,0.00,0.0,WeatherDisplay:10.37,2013-07-12 15:30:00,
2013-07-12 17:40:00,72.3,51.5,30.12,NE,43,8.0,8.0,48,0.00,FEW,OVC,0.00,0.0,WeatherDisplay:10.37,2013-07-12 15:40:00,
2013-07-12 17:50:00,70.0,49.9,30.12,NE,50,9.0,10.0,49,0.00,FEW,OVC,0.00,0.0,WeatherDisplay:10.37,2013-07-12 15:50:00,
2013-07-12 18:00:00,70.9,51.3,30.12,NE,50,3.0,9.0,50,0.00,FEW,OVC,0.00,0.0,WeatherDisplay:10.37,2013-07-12 16:00:00,
2013-07-12 18:10:00,71.2,51.1,30.12,ENE,62,5.0,5.0,49,0.00,OVC,OVC,0.00,0.0,WeatherDisplay:10.37,2013-07-12 16:10:00,
2013-07-12 18:20:00,70.5,49.9,30.12,NE,52,9.0,9.0,48,0.00,OVC,OVC,0.00,0.0,WeatherDisplay:10.37,2013-07-12 16:20:00,
2013-07-12 18:30:00,69.1,50.2,30.12,NE,50,8.0,9.0,51,0.00,OVC,OVC,0.00,0.0,WeatherDisplay:10.37,2013-07-12 16:30:00,
2013-07-12 18:40:00,71.2,51.6,30.12,NNE,20,5.0,8.0,50,0.00,OVC,OVC,0.00,0.0,WeatherDisplay:10.37,2013-07-12 16:40:00,
2013-07-12 18:50:00,69.1,50.7,30.12,North,11,7.0,7.0,52,0.00,OVC,OVC,0.00,0.0,WeatherDisplay:10.37,2013-07-12 16:50:00,
2013-07-12 19:00:00,69.4,51.0,30.12,NNW,344,7.0,7.0,52,0.00,OVC,OVC,0.00,0.0,WeatherDisplay:10.37,2013-07-12 17:00:00,
2013-07-12 19:10:00,68.7,50.9,30.12,NW,318,5.0,5.0,53,0.00,OVC,OVC,0.00,0.0,WeatherDisplay:10.37,2013-07-12 17:10:00,
2013-07-12 19:20:00,66.6,50.4,30.12,North,359,5.0,8.0,56,0.00,OVC,OVC,0.00,0.0,WeatherDisplay:10.37,2013-07-12 17:20:00,
2013-07-12 19:30:00,66.2,50.0,30.12,North,352,5.0,5.0,56,0.00,OVC,OVC,0.00,0.0,WeatherDisplay:10.37,2013-07-12 17:30:00,
2013-07-12 19:40:00,65.8,50.2,30.12,NNW,333,5.0,5.0,57,0.00,OVC,OVC,0.00,0.0,WeatherDisplay:10.37,2013-07-12 17:40:00,
2013-07-12 19:50:00,65.5,49.8,30.12,NW,305,6.0,6.0,57,0.00,OVC,OVC,0.00,0.0,WeatherDisplay:10.37,2013-07-12 17:50:00,
2013-07-12 20:00:00,65.3,49.7,30.12,NNW,342,6.0,6.0,57,0.00,OVC,OVC,0.00,0.0,WeatherDisplay:10.37,2013-07-12 18:00:00,
2013-07-12 20:10:00,65.1,50.9,30.12,NNW,338,3.0,5.0,60,0.00,OVC,OVC,0.00,0.0,WeatherDisplay:10.37,2013-07-12 18:10:00,
2013-07-12 20:20:00,63.1,51.2,30.12,NNW,342,3.0,3.0,65,0.00,OVC,OVC,0.00,0.0,WeatherDisplay:10.37,2013-07-12 18:20:00,
2013-07-12 20:30:00,62.4,50.9,30.12,NE,51,3.0,3.0,66,0.00,OVC,OVC,0.00,0.0,WeatherDisplay:10.37,2013-07-12 18:30:00,
2013-07-12 20:40:00,61.5,50.5,30.12,East,101,1.0,4.0,67,0.00,OVC,OVC,0.00,0.0,WeatherDisplay:10.37,2013-07-12 18:40:00,
2013-07-12 20:50:00,60.6,49.6,30.12,ESE,113,0.0,4.0,67,0.00,OVC,OVC,0.00,0.0,WeatherDisplay:10.37,2013-07-12 18:50:00,
2013-07-12 21:00:00,60.4,49.8,30.12,SE,131,0.0,0.0,68,0.00,OVC,OVC,0.00,0.0,WeatherDisplay:10.37,2013-07-12 19:00:00,
2013-07-12 21:10:00,59.5,49.0,30.12,ENE,73,0.0,0.0,68,0.00,OVC,OVC,0.00,0.0,WeatherDisplay:10.37,2013-07-12 19:10:00,
2013-07-12 21:20:00,59.0,48.8,30.15,NNE,30,0.0,0.0,69,0.00,OVC,OVC,0.00,0.0,WeatherDisplay:10.37,2013-07-12 19:20:00,
2013-07-12 21:30:00,58.8,49.1,30.15,SW,226,0.0,0.0,70,0.00,OVC,OVC,0.00,0.0,WeatherDisplay:10.37,2013-07-12 19:30:00,
2013-07-12 21:40:00,56.5,47.2,30.15,SW,216,0.0,0.0,71,0.00,CLR,OVC,0.00,0.0,WeatherDisplay:10.37,2013-07-12 19:40:00,
2013-07-12 21:50:00,54.5,46.0,30.15,WSW,253,0.0,0.0,73,0.00,CLR,OVC,0.00,0.0,WeatherDisplay:10.37,2013-07-12 19:50:00,
2013-07-12 22:00:00,53.6,45.2,30.15,SW,229,0.0,0.0,73,0.00,CLR,OVC,0.00,0.0,WeatherDisplay:10.37,2013-07-12 20:00:00,
2013-07-12 22:20:00,52.0,44.6,30.15,SW,218,0.0,0.0,76,0.00,CLR,OVC,0.00,0.0,WeatherDisplay:10.37,2013-07-12 20:20:00,
2013-07-12 22:30:00,51.3,44.0,30.15,SSW,206,0.0,0.0,76,0.00,CLR,OVC,0.00,0.0,WeatherDisplay:10.37,2013-07-12 20:30:00,
2013-07-12 22:40:00,50.9,43.6,30.15,SW,230,0.0,0.0,76,0.00,CLR,OVC,0.00,0.0,WeatherDisplay:10.37,2013-07-12 20:40:00,
2013-07-12 22:50:00,50.2,43.2,30.15,WSW,249,0.0,0.0,77,0.00,CLR,OVC,0.00,0.0,WeatherDisplay:10.37,2013-07-12 20:50:00,
2013-07-12 23:00:00,50.0,43.1,30.15,SW,224,0.0,0.0,77,0.00,CLR,OVC,0.00,0.0,WeatherDisplay:10.37,2013-07-12 21:00:00,
2013-07-12 23:10:00,49.6,42.7,30.15,SW,216,0.0,0.0,77,0.00,BKN,OVC,0.00,0.0,WeatherDisplay:10.37,2013-07-12 21:10:00,
2013-07-12 23:20:00,49.1,42.2,30.15,SSW,204,0.0,0.0,77,0.00,BKN,OVC,0.00,0.0,WeatherDisplay:10.37,2013-07-12 21:20:00,
2013-07-12 23:30:00,48.7,42.2,30.15,SSW,199,0.0,0.0,78,0.00,BKN,OVC,0.00,0.0,WeatherDisplay:10.37,2013-07-12 21:30:00,
2013-07-12 23:40:00,48.7,42.2,30.15,SW,235,0.0,0.0,78,0.00,BKN,OVC,0.00,0.0,WeatherDisplay:10.37,2013-07-12 21:40:00,
2013-07-12 23:50:00,48.2,41.7,30.15,SSW,202,0.0,0.0,78,0.00,BKN,OVC,0.00,0.0,WeatherDisplay:10.37,2013-07-12 21:50:00,